Total_Precipitation_Accumulation
0.15 0.25 0.67 0.84 0.89 0.87 0.89 0.89 0.91 0.82 0.81 0.84 0.83 0.88 0.89 0.90 0.89 0.85 0.83 0.86 0.92 0.94 0.93 1.01 1.08 1.03 0.88 0.71 0.59 0.54 0.49 0.47 0.47 0.50 0.56 0.63 0.63 0.62 0.56 0.48 0.41 0.48 0.66
0.16 0.26 0.59 0.81 0.92 0.92 0.97 0.95 0.93 0.83 0.80 0.84 0.87 0.93 0.91 0.88 0.87 0.87 0.91 0.95 1.03 1.05 1.00 0.99 0.98 0.94 0.85 0.71 0.59 0.50 0.45 0.40 0.34 0.32 0.36 0.43 0.55 0.67 0.62 0.56 0.53 0.65 0.70
0.16 0.26 0.52 0.81 0.92 0.94 0.97 0.96 0.96 0.87 0.83 0.82 0.90 0.98 0.99 0.95 0.88 0.92 0.96 1.03 1.09 1.12 1.08 1.00 0.94 0.88 0.75 0.67 0.62 0.53 0.46 0.39 0.30 0.24 0.25 0.31 0.48 0.68 0.65 0.64 0.63 0.70 0.73
0.17 0.30 0.48 0.76 0.92 0.99 0.99 0.97 0.96 0.91 0.91 0.90 0.94 1.02 1.03 0.95 0.87 0.90 0.96 0.99 1.08 1.11 1.15 1.06 0.95 0.90 0.76 0.66 0.63 0.58 0.50 0.41 0.30 0.21 0.16 0.26 0.48 0.78 0.79 0.76 0.73 0.72 0.72
0.22 0.33 0.54 0.80 0.96 1.05 1.04 0.99 0.96 0.94 0.98 1.00 1.01 1.07 1.06 1.03 0.93 0.86 0.83 0.88 0.97 1.04 1.09 1.11 0.96 0.88 0.77 0.67 0.60 0.58 0.58 0.48 0.32 0.18 0.14 0.20 0.46 0.87 0.91 0.83 0.77 0.74 0.70
0.25 0.35 0.56 0.82 1.02 1.07 1.06 1.07 0.99 1.00 1.06 1.07 1.09 1.15 1.14 1.09 1.01 0.93 0.84 0.83 0.83 0.90 0.97 1.01 0.93 0.89 0.80 0.68 0.65 0.66 0.66 0.58 0.31 0.14 0.14 0.19 0.44 0.87 0.94 0.84 0.76 0.72 0.71
0.35 0.44 0.63 0.90 1.10 1.15 1.16 1.17 1.13 1.11 1.14 1.16 1.15 1.20 1.24 1.16 1.12 1.01 0.89 0.82 0.73 0.74 0.81 0.88 0.86 0.86 0.83 0.73 0.72 0.73 0.77 0.60 0.30 0.21 0.19 0.21 0.43 0.96 1.16 1.00 0.85 0.77 0.76
0.45 0.59 0.77 1.10 1.26 1.36 1.38 1.33 1.29 1.31 1.35 1.34 1.31 1.31 1.33 1.25 1.13 1.04 0.93 0.85 0.78 0.76 0.78 0.81 0.82 0.83 0.85 0.81 0.75 0.75 0.73 0.50 0.29 0.28 0.27 0.30 0.55 1.09 1.32 1.30 1.08 0.87 0.79
0.55 0.70 0.85 1.06 1.30 1.55 1.70 1.66 1.56 1.51 1.51 1.49 1.44 1.46 1.45 1.38 1.29 1.18 1.10 0.99 0.91 0.86 0.83 0.78 0.72 0.71 0.73 0.77 0.73 0.66 0.57 0.42 0.25 0.31 0.31 0.41 0.57 1.07 1.30 1.37 1.25 1.07 0.92
0.67 0.81 0.95 1.11 1.29 1.51 1.71 1.83 1.74 1.61 1.56 1.61 1.60 1.55 1.55 1.47 1.42 1.36 1.20 1.06 0.98 0.93 0.84 0.77 0.72 0.68 0.64 0.62 0.58 0.52 0.41 0.33 0.24 0.31 0.44 0.45 0.56 1.08 1.32 1.36 1.26 1.17 1.08
0.82 0.93 1.04 1.22 1.36 1.56 1.74 1.78 1.81 1.75 1.69 1.68 1.60 1.52 1.50 1.43 1.33 1.24 1.11 1.07 1.03 0.98 0.91 0.87 0.81 0.72 0.62 0.52 0.47 0.42 0.33 0.24 0.25 0.38 0.43 0.47 0.69 1.15 1.35 1.35 1.27 1.19 1.17
0.86 0.98 1.08 1.26 1.36 1.56 1.59 1.72 1.86 1.78 1.71 1.66 1.51 1.48 1.41 1.37 1.32 1.15 1.11 1.13 1.08 1.03 1.01 0.99 0.93 0.81 0.66 0.51 0.49 0.45 0.30 0.22 0.22 0.24 0.27 0.38 0.71 1.19 1.37 1.34 1.34 1.32 1.30
0.82 1.02 1.11 1.28 1.41 1.52 1.58 1.61 1.75 1.76 1.71 1.66 1.58 1.52 1.48 1.48 1.48 1.35 1.23 1.22 1.14 1.05 1.03 1.03 0.98 0.79 0.69 0.61 0.57 0.46 0.34 0.27 0.23 0.20 0.20 0.28 0.48 0.81 1.17 1.34 1.39 1.43 1.45
0.89 1.06 1.19 1.39 1.53 1.57 1.64 1.68 1.70 1.78 1.77 1.68 1.64 1.60 1.55 1.49 1.45 1.40 1.27 1.15 1.10 1.07 1.05 1.03 0.98 0.84 0.73 0.63 0.58 0.47 0.39 0.32 0.26 0.23 0.19 0.22 0.31 0.48 0.78 1.08 1.27 1.41 1.53
0.94 1.10 1.28 1.49 1.59 1.65 1.71 1.77 1.76 1.74 1.71 1.67 1.60 1.60 1.53 1.45 1.39 1.34 1.25 1.17 1.12 1.04 0.98 0.94 0.88 0.80 0.72 0.67 0.60 0.51 0.46 0.40 0.34 0.29 0.24 0.24 0.24 0.32 0.51 0.80 1.09 1.34 1.55
0.99 1.14 1.34 1.53 1.64 1.70 1.71 1.73 1.71 1.72 1.68 1.67 1.61 1.52 1.49 1.46 1.40 1.36 1.33 1.24 1.17 1.11 1.03 0.97 0.89 0.81 0.72 0.65 0.60 0.55 0.50 0.46 0.42 0.38 0.32 0.31 0.30 0.31 0.43 0.63 0.88 1.23 1.51
1.08 1.25 1.47 1.65 1.77 1.79 1.79 1.79 1.78 1.72 1.70 1.65 1.59 1.59 1.54 1.47 1.42 1.40 1.38 1.29 1.19 1.13 1.08 1.03 1.01 0.98 0.88 0.78 0.70 0.63 0.57 0.50 0.45 0.40 0.38 0.37 0.36 0.37 0.41 0.53 0.68 0.95 1.32
1.19 1.34 1.51 1.76 1.88 1.86 1.87 1.88 1.88 1.77 1.71 1.72 1.65 1.63 1.59 1.52 1.47 1.50 1.46 1.37 1.28 1.26 1.18 1.07 1.00 0.97 0.91 0.84 0.78 0.73 0.66 0.58 0.51 0.44 0.40 0.37 0.40 0.40 0.40 0.45 0.54 0.72 1.07
1.19 1.25 1.47 1.74 1.88 1.90 1.92 1.92 1.98 1.94 1.82 1.78 1.74 1.67 1.60 1.56 1.50 1.52 1.51 1.44 1.36 1.36 1.31 1.19 1.06 0.94 0.87 0.81 0.75 0.71 0.68 0.66 0.66 0.63 0.54 0.45 0.40 0.42 0.46 0.48 0.52 0.57 0.76
1.28 1.38 1.49 1.74 1.87 1.99 2.06 2.08 2.07 2.04 1.94 1.87 1.82 1.68 1.60 1.61 1.59 1.54 1.51 1.47 1.43 1.40 1.38 1.30 1.16 1.01 0.88 0.81 0.79 0.75 0.67 0.62 0.62 0.59 0.55 0.50 0.41 0.39 0.47 0.53 0.55 0.52 0.57
1.32 1.41 1.49 1.68 1.77 1.99 2.15 2.04 1.95 1.89 1.88 1.84 1.79 1.79 1.73 1.75 1.75 1.68 1.61 1.59 1.54 1.45 1.33 1.30 1.27 1.20 1.08 0.98 1.00 0.93 0.79 0.67 0.61 0.56 0.53 0.50 0.45 0.40 0.41 0.51 0.59 0.56 0.51
1.19 1.26 1.35 1.56 1.74 1.91 2.05 2.00 1.87 1.84 1.83 1.84 1.79 1.84 1.91 1.93 1.93 1.83 1.68 1.64 1.62 1.55 1.43 1.31 1.31 1.32 1.20 1.11 1.13 1.17 1.03 0.87 0.69 0.54 0.50 0.48 0.44 0.43 0.44 0.46 0.54 0.59 0.57
1.07 1.14 1.26 1.50 1.70 1.93 2.10 2.23 2.17 2.15 2.12 2.05 1.93 1.83 1.82 1.87 1.84 1.76 1.64 1.59 1.61 1.62 1.54 1.41 1.31 1.28 1.24 1.10 1.03 1.24 1.24 0.94 0.66 0.54 0.50 0.49 0.48 0.48 0.47 0.47 0.49 0.55 0.61
0.97 1.06 1.19 1.51 1.74 1.93 2.09 2.18 2.23 2.18 2.10 1.98 1.86 1.80 1.74 1.70 1.72 1.67 1.65 1.58 1.51 1.48 1.42 1.37 1.31 1.25 1.22 1.19 1.11 1.05 1.04 0.94 0.90 0.69 0.49 0.47 0.49 0.53 0.54 0.53 0.53 0.57 0.61
0.97 1.01 1.12 1.34 1.61 1.84 2.03 2.10 2.16 2.12 2.03 2.00 2.00 1.96 1.94 1.85 1.74 1.71 1.65 1.65 1.58 1.48 1.39 1.36 1.35 1.33 1.28 1.19 1.11 1.01 0.95 0.86 0.83 0.90 0.67 0.50 0.51 0.50 0.53 0.57 0.58 0.60 0.62
1.07 1.10 1.14 1.24 1.43 1.69 1.88 1.96 1.99 2.01 1.95 1.93 1.97 1.96 1.94 1.85 1.73 1.63 1.59 1.58 1.55 1.45 1.35 1.31 1.31 1.34 1.33 1.24 1.12 1.03 1.02 0.98 0.86 0.89 0.82 0.61 0.57 0.54 0.54 0.58 0.63 0.65 0.65